Location: Unspecified
(0.0000°N, 0.0000°E)
Time: 03:22:21
(UTC+00:00)

Vanguard 1 - Visible Passes

Search period start: 18 December 2017 00:00
Search period end: 28 December 2017 00:00
Orbit: 650 x 3834 km, 34.2° (Epoch: 16 December)

Date Brightness Start Highest point End Pass type
(mag) Time Alt. Az. Time Alt. Az. Time Alt. Az.
18 Dec 13.5 00:41:41 10° S 00:48:16 15° SE 00:56:49 10° ESE visible
18 Dec 13.0 02:58:41 10° SW 03:13:20 54° SE 03:35:30 10° ENE visible
18 Dec 12.9 05:20:36 10° WSW 05:40:01 69° NW 06:03:24 10° NE visible
19 Dec 13.4 01:01:15 10° S 01:10:04 22° SE 01:22:41 10° E visible
19 Dec 12.7 03:19:25 10° SW 03:34:45 68° SE 03:58:01 10° ENE visible
20 Dec 13.2 01:21:16 10° SSW 01:31:35 30° SE 01:47:26 10° E visible
20 Dec 12.6 03:40:21 10° SW 03:56:14 83° SE 04:20:05 10° NE visible
21 Dec 12.9 01:41:31 10° SSW 01:52:53 40° SE 02:11:17 10° ENE visible
21 Dec 12.6 04:01:31 10° WSW 04:17:51 81° NW 04:41:49 10° NE visible
21 Dec 13.4 23:51:22 12° SE 23:51:22 12° SE 23:54:59 10° ESE visible
22 Dec 12.6 02:04:29 20° SSW 02:14:05 53° SE 02:34:25 10° ENE visible
22 Dec 12.6 04:22:58 10° WSW 04:39:39 67° NW 05:03:19 10° NE visible
23 Dec 13.3 00:14:54 17° SE 00:14:54 17° SE 00:21:28 10° ESE visible
23 Dec 12.3 02:27:54 35° SSW 02:35:18 68° SE 02:57:00 10° ENE visible
23 Dec 12.8 04:44:46 10° WSW 05:01:41 55° NNW 05:24:38 10° NE visible
24 Dec 13.2 00:37:33 23° ESE 00:37:33 23° ESE 00:46:15 10° E visible
24 Dec 12.1 02:50:31 47° SW 02:56:38 85° SE 03:19:08 10° NE visible
24 Dec 13.0 05:07:00 10° W 05:23:59 44° NNW 05:45:53 10° NE visible
25 Dec 13.0 00:59:45 30° ESE 00:59:45 30° ESE 01:10:05 10° ENE visible
25 Dec 12.1 03:12:39 51° WSW 03:18:10 79° NW 03:40:56 10° NE visible
25 Dec 13.2 05:29:44 10° W 05:46:35 36° NNW 06:07:10 10° NE visible
26 Dec 12.9 01:21:33 37° E 01:21:33 37° E 01:33:12 10° ENE visible
26 Dec 12.2 03:34:26 48° W 03:39:56 63° NW 04:02:30 10° NE visible
27 Dec 12.7 01:43:03 44° ENE 01:43:03 44° ENE 01:55:45 10° ENE visible
27 Dec 12.4 03:55:55 40° WNW 04:01:58 51° NNW 04:23:55 10° NE visible
